EHI
0 0 1 2 2 1 0 0 0 0 0 0 0 0 0 0 0 1 2 4 7 14 19 19 18 15 11 12 15 15 15 15 15 12 9 9 12 11 9 6 5 6 7 7 6 5 3 2 3
0 1 2 2 1 0 0 0 0 0 0 0 0 0 0 0 1 2 3 6 11 16 18 18 18 16 13 13 15 16 16 17 16 15 12 11 11 12 9 7 6 6 7 7 7 5 4 3 2
0 1 3 2 1 0 0 0 0 0 0 0 0 0 1 2 2 3 5 9 13 15 17 19 19 17 15 14 16 17 17 17 17 16 14 12 13 13 12 10 8 6 6 8 9 7 7 6 4
1 1 2 2 1 0 0 0 0 0 0 0 0 1 2 4 4 5 7 10 12 13 15 20 21 18 15 15 16 17 17 17 17 15 14 13 14 14 14 14 10 7 7 9 10 9 9 8 7
0 1 1 1 0 0 0 0 0 0 0 0 0 1 3 6 6 7 10 12 12 11 15 20 22 19 16 15 16 17 17 17 16 15 14 15 16 16 16 15 11 7 6 8 8 9 9 8 8
0 0 0 0 0 0 0 0 0 0 0 0 0 1 4 8 10 12 12 12 12 11 14 19 22 20 18 17 17 18 17 17 16 16 16 16 17 16 15 14 11 8 7 5 6 8 8 9 9
0 0 0 0 0 0 0 0 0 0 0 0 0 1 5 12 16 16 14 12 11 11 12 16 18 18 17 16 16 17 17 16 16 16 16 16 16 14 12 11 12 11 9 6 6 7 8 9 10
0 0 0 0 0 0 0 0 0 1 1 1 1 2 8 17 21 19 17 15 13 11 11 14 16 14 13 12 13 14 15 15 14 14 13 13 12 9 7 7 11 12 10 7 6 6 7 8 9
0 0 0 0 0 0 0 0 0 1 2 2 2 4 12 21 23 20 18 17 15 13 13 15 14 12 10 9 9 10 12 12 11 10 10 9 7 5 3 4 8 10 9 7 5 5 5 6 7
0 0 0 0 0 0 0 0 0 1 1 1 1 7 17 24 22 18 17 17 16 15 16 16 14 11 9 8 7 8 10 10 9 9 8 7 6 5 4 5 8 8 7 6 5 4 3 3 4
0 0 0 0 0 0 0 0 0 0 0 0 1 9 20 23 18 15 15 15 15 15 16 15 13 11 9 8 7 8 9 10 9 9 8 7 8 8 8 10 10 7 5 4 4 4 2 1 2
0 0 0 0 0 0 0 0 0 0 0 0 2 11 22 23 17 14 14 14 13 13 14 13 12 11 9 7 6 7 8 8 8 8 7 8 9 10 11 11 9 7 5 3 3 3 2 2 3
0 0 0 0 0 0 0 0 1 1 1 1 4 12 21 21 16 13 13 13 12 12 12 13 13 12 10 7 6 6 5 6 7 8 8 7 8 9 10 10 8 7 6 4 3 3 4 4 4
0 0 0 0 0 0 0 1 2 3 2 2 5 13 18 18 15 13 12 12 11 10 11 12 12 12 10 8 6 6 4 4 6 8 8 7 7 8 9 10 9 7 6 5 4 3 4 5 5
0 0 0 0 0 0 0 1 2 3 2 2 6 12 16 16 14 12 12 11 10 10 10 9 10 11 9 7 6 5 5 4 4 6 6 5 4 5 8 10 8 6 6 6 4 3 3 4 5
0 0 0 0 0 0 0 0 1 2 3 3 6 10 14 14 12 10 11 11 11 10 9 7 7 9 9 6 4 4 4 3 2 3 3 2 1 3 6 7 5 4 5 6 5 4 3 4 5
0 0 0 0 0 0 0 0 0 1 2 3 5 8 11 12 9 8 11 13 12 10 9 8 7 9 10 9 6 4 4 3 2 1 1 1 1 1 2 4 3 3 5 7 7 6 3 3 6
0 0 0 0 0 0 0 0 0 1 1 3 5 6 8 9 8 9 13 15 14 12 10 9 9 12 13 12 10 8 6 4 3 2 1 2 1 1 1 1 1 2 6 9 9 7 4 3 4
0 0 0 0 0 0 0 0 0 0 1 2 3 4 6 7 8 12 16 17 16 14 11 10 11 13 14 13 12 11 8 5 3 3 2 2 2 2 1 1 1 3 7 10 10 8 6 4 4
0 0 0 0 0 0 0 0 0 0 0 1 1 3 5 7 10 14 17 18 17 15 13 11 12 14 14 12 11 11 9 8 6 5 4 4 3 3 2 1 3 6 8 10 11 11 9 7 6
0 0 0 0 0 0 0 0 0 0 0 0 0 1 3 7 11 14 16 16 16 15 13 12 14 15 15 13 10 9 9 7 7 6 5 4 3 3 2 3 6 8 8 10 12 12 11 10 9
0 0 0 0 0 0 0 1 1 1 0 0 0 1 2 5 9 13 15 14 13 13 13 13 15 18 18 14 9 7 5 4 5 6 6 4 3 3 2 4 8 9 8 9 10 11 13 13 10
0 0 0 0 0 0 0 1 2 1 0 0 0 0 1 3 7 11 14 14 13 13 14 15 17 19 18 13 8 4 2 2 4 7 7 6 5 4 4 5 9 10 9 9 9 10 13 14 13
0 0 0 0 0 0 1 2 3 3 1 0 1 1 1 3 7 12 15 16 15 14 14 16 18 19 17 13 9 5 4 5 7 8 8 7 6 6 6 7 8 9 9 9 11 11 13 15 17
0 0 0 0 0 1 2 3 3 3 1 0 1 2 2 4 8 12 15 18 17 15 16 17 18 19 16 14 11 10 9 8 8 8 7 6 5 6 7 8 8 9 8 9 10 11 11 13 16
0 0 0 0 1 2 3 3 2 2 1 0 1 3 4 5 7 10 15 19 19 18 19 19 19 18 16 14 14 13 11 8 7 7 7 6 4 4 6 7 7 7 6 6 7 8 7 8 10
0 0 0 1 2 3 3 2 1 2 2 1 2 5 6 7 8 10 16 21 21 21 23 22 20 19 17 15 14 12 9 7 6 7 7 7 6 5 5 6 5 4 4 4 4 4 4 4 5
0 1 1 1 3 3 3 2 2 4 4 2 2 6 7 8 8 11 18 24 24 24 25 25 24 22 19 16 14 12 9 7 6 6 7 8 7 6 5 4 4 3 3 2 2 2 2 2 1
1 2 2 3 3 3 3 2 3 6 7 4 3 6 7 7 9 12 18 24 25 25 26 27 27 25 21 17 14 13 10 7 6 5 5 6 5 4 4 4 3 2 1 1 1 1 1 1 0
3 3 3 3 3 3 3 1 3 7 8 5 4 6 7 7 10 13 17 21 23 24 25 27 28 25 20 16 14 13 10 6 4 4 3 4 4 3 3 3 3 1 0 0 0 0 0 0 0
Wind_Speed
8 7 6 6 8 3 3 5 4 4 4 5 4 2 3 5 6 7 7 9 9 11 13 13 9 9 8 8 8 8 8 9 8 8 8 7 7 7 7 7 7 7 7 8 8 9 10 10 10
5 5 7 7 5 3 5 5 4 5 4 3 3 2 3 6 6 7 8 9 11 11 11 11 11 9 8 8 8 8 8 8 8 8 7 7 7 7 7 7 7 7 7 7 7 8 9 9 9
6 7 7 5 2 1 5 5 4 4 2 1 3 3 4 5 5 5 8 11 11 11 10 12 10 9 8 8 8 8 8 8 8 8 7 7 7 6 6 7 7 7 7 7 7 7 8 8 9
6 7 6 5 2 3 4 4 3 3 3 2 2 5 5 6 3 6 11 11 11 11 10 13 9 9 8 8 7 8 8 7 7 7 7 7 6 6 6 6 7 7 7 7 7 7 6 6 8
7 6 6 4 3 3 2 2 1 2 2 2 2 4 6 6 7 10 11 11 10 10 9 12 9 8 8 8 7 7 7 7 7 7 6 6 5 5 6 6 6 6 7 7 7 6 6 6 6
6 6 6 4 4 3 2 1 1 1 3 3 2 3 6 7 8 9 10 9 9 9 9 11 10 9 8 7 7 6 6 6 6 6 6 5 5 5 5 5 5 5 6 6 6 6 5 5 5
7 5 6 3 3 3 2 1 1 1 2 2 1 3 7 8 7 8 9 9 9 8 8 8 10 9 9 8 7 6 6 5 5 5 5 5 5 5 5 5 5 5 5 6 6 6 5 5 4
6 6 7 5 4 3 3 1 1 1 2 3 1 1 5 9 8 8 8 8 8 8 7 7 7 7 7 8 9 7 6 6 5 5 5 5 6 7 6 6 5 5 5 6 6 5 6 5 5
7 8 7 5 4 2 2 2 2 1 2 3 1 3 7 12 11 10 9 8 8 7 6 6 6 5 4 5 7 7 8 7 7 6 6 6 5 6 6 4 5 5 5 6 5 5 5 6 7
7 8 5 1 2 1 1 2 1 3 4 4 4 6 9 11 11 10 9 9 8 8 7 6 6 6 5 3 4 4 4 5 4 3 4 3 2 1 3 7 5 4 5 6 6 5 6 7 5
7 7 3 2 3 3 3 3 3 4 3 1 2 6 9 10 10 9 8 8 8 7 6 6 5 5 5 3 3 2 2 3 3 3 3 2 2 2 2 3 5 5 5 4 6 6 4 3 2
7 6 5 4 3 4 4 3 3 2 2 2 1 5 10 10 9 8 7 7 7 7 6 5 5 5 4 3 2 3 2 2 2 3 3 2 1 1 2 2 2 2 2 2 3 2 3 3 3
10 7 5 5 5 5 4 4 3 2 1 2 3 6 8 9 9 8 7 6 6 6 6 5 5 5 4 3 2 2 2 2 2 2 2 2 2 1 2 1 1 2 1 2 2 2 2 3 3
6 6 7 7 6 5 5 4 4 2 2 3 5 6 7 7 8 8 7 6 6 5 5 5 5 5 5 4 3 2 2 2 2 2 2 2 1 1 1 2 2 1 1 1 1 2 2 3 2
6 8 9 8 7 6 6 7 5 3 4 5 5 5 5 6 6 6 6 6 6 5 4 4 5 5 5 5 4 3 2 2 2 2 2 2 2 2 2 2 2 2 2 2 2 2 3 3 3
10 11 10 8 7 6 9 7 4 4 5 5 5 5 5 5 6 5 5 5 5 5 5 4 4 5 6 4 3 2 2 2 2 2 2 2 1 2 2 2 2 2 2 3 2 3 3 2 3
12 11 9 7 6 7 9 6 3 4 5 5 5 5 6 5 5 5 5 6 5 5 5 5 4 5 5 5 4 3 2 2 2 1 1 1 2 2 2 1 1 3 2 2 3 2 3 3 2
9 10 9 8 6 7 8 6 4 5 5 5 5 5 5 5 5 5 5 6 6 5 5 5 4 4 5 5 4 3 3 3 2 2 2 2 2 2 2 2 2 2 2 2 2 2 2 2 2
8 9 8 6 4 7 7 7 6 6 7 7 6 6 6 5 5 6 6 6 6 6 5 5 4 4 4 4 4 3 3 2 2 2 2 2 2 2 2 1 2 3 2 2 2 3 3 3 2
11 11 9 6 5 6 7 8 7 7 8 7 7 6 6 6 6 6 6 6 6 6 5 5 4 4 4 3 3 2 2 2 2 2 2 3 3 3 3 2 2 2 2 3 3 3 3 2 2
12 11 9 6 5 7 8 9 9 8 8 8 8 7 7 6 7 7 7 7 7 6 5 4 4 4 4 4 3 3 3 2 2 2 2 2 2 3 2 3 3 3 3 2 3 4 4 3 2
11 9 8 8 9 7 8 7 7 8 9 9 9 9 8 8 7 8 8 7 6 6 6 5 5 4 4 4 4 4 3 2 2 1 1 2 2 2 2 3 3 3 3 3 4 3 4 4 3
8 6 9 10 10 9 9 9 5 8 9 10 9 9 8 9 9 8 8 7 6 6 5 5 5 5 4 4 4 4 3 2 2 2 2 2 2 2 2 2 2 3 3 3 3 3 4 4 4
7 8 8 10 10 11 9 9 5 6 8 8 9 8 8 8 9 8 8 8 6 6 6 5 5 5 4 4 4 4 3 2 2 2 2 3 2 2 2 2 2 3 2 2 3 3 4 3 3
11 9 7 9 10 8 6 8 4 3 5 6 8 9 9 8 8 8 8 7 7 6 6 5 5 5 4 4 4 3 3 3 3 3 3 3 2 2 1 1 2 1 1 2 2 2 2 3 3
12 13 9 7 7 5 7 7 2 4 5 6 7 8 9 9 9 8 8 7 6 6 6 6 6 5 5 4 4 3 3 2 2 2 2 2 2 1 1 1 1 1 1 2 2 2 2 2 3
11 12 9 10 9 8 6 5 5 5 6 7 8 9 9 9 9 8 8 7 6 6 6 5 5 5 5 4 4 3 3 1 1 1 2 1 1 1 2 2 2 1 1 2 2 1 2 2 3
10 8 7 9 9 9 7 8 5 7 8 8 8 9 8 8 8 9 8 7 6 6 6 5 5 5 4 4 3 3 3 2 1 1 1 1 1 1 1 2 2 2 2 2 2 2 2 2 2
9 10 9 9 9 8 7 3 2 4 5 7 7 8 8 8 8 8 7 7 7 6 6 6 6 5 4 4 3 3 2 1 2 1 1 1 1 1 1 1 2 2 2 2 2 2 2 3 2
9 10 10 9 9 9 8 2 3 3 4 5 5 6 6 7 7 7 8 8 8 7 7 6 6 5 5 4 3 3 2 1 1 1 1 2 2 2 2 2 2 2 2 2 3 3 3 3 3
Wind_Direction
207 216 234 238 232 201 94 81 67 83 83 55 42 32 30 20 11 57 95 129 132 134 132 141 140 141 137 134 133 132 129 129 129 129 129 127 124 120 117 118 118 124 130 133 133 131 129 126 125
224 228 235 239 246 168 106 84 83 69 71 79 99 97 85 68 51 91 122 132 138 135 139 139 135 140 136 134 132 131 131 130 130 131 131 130 125 121 123 125 123 124 134 138 138 136 132 131 132
230 241 257 244 251 42 90 88 85 89 91 117 112 79 52 68 87 104 122 139 138 136 138 129 141 139 136 135 132 131 133 132 131 133 134 129 127 127 127 125 125 125 128 133 136 133 132 137 138
234 224 235 242 157 72 58 78 94 120 122 120 126 107 88 60 75 108 130 140 139 142 142 130 143 138 137 137 136 134 134 135 134 136 136 133 137 138 134 129 127 126 126 128 131 129 132 137 136
241 248 227 206 154 103 77 67 123 133 112 119 139 110 100 86 96 119 137 143 145 141 137 132 138 138 137 139 138 136 134 132 132 136 137 138 141 146 144 137 133 133 134 133 131 130 131 139 138
233 239 234 203 146 136 123 119 200 161 115 121 141 127 97 109 122 131 140 146 143 139 137 132 140 143 144 142 138 137 136 133 131 134 137 139 144 146 149 144 143 142 144 143 143 143 143 139 142
257 246 246 229 174 160 108 105 229 176 131 109 139 126 117 128 127 140 145 146 143 144 145 146 151 153 154 149 145 143 143 141 138 137 140 144 146 146 145 147 148 146 147 149 150 148 143 140 145
273 254 232 222 213 160 113 141 143 277 104 99 171 143 124 136 141 142 144 147 147 152 156 153 153 152 162 159 151 152 151 148 147 147 150 157 162 164 164 168 150 151 148 150 149 147 145 146 150
250 245 231 218 223 156 127 182 141 165 143 145 123 50 90 134 146 149 151 156 154 158 165 161 157 152 159 161 149 167 164 160 171 167 166 194 191 174 175 140 134 150 150 149 148 150 155 168 166
236 243 237 258 276 273 199 243 226 198 189 170 142 110 121 145 155 162 165 164 163 166 168 165 164 158 165 167 159 181 177 159 190 167 176 195 179 185 159 122 133 147 153 154 149 158 184 210 182
230 250 249 235 271 279 261 258 255 241 221 185 165 143 148 160 168 173 172 168 165 163 167 166 165 168 174 169 172 177 176 158 176 169 185 186 186 173 164 153 157 165 182 178 159 183 198 195 178
232 241 253 258 254 254 258 252 239 267 296 356 98 152 159 169 175 174 172 169 164 163 168 168 167 172 183 183 179 187 181 170 177 162 203 178 174 174 154 174 161 173 178 174 187 193 185 200 194
229 232 238 253 250 249 245 242 245 272 318 87 129 154 165 174 173 168 163 162 162 165 172 169 171 169 176 187 211 188 191 188 160 169 173 185 175 162 166 154 168 179 172 173 188 197 191 212 205
229 235 243 242 238 228 226 234 235 233 168 147 151 161 167 170 169 164 166 168 169 169 168 165 175 170 181 186 191 186 184 179 177 165 157 183 172 157 173 166 171 175 182 170 191 188 205 219 214
233 233 230 220 221 211 216 221 216 186 177 169 165 162 160 164 170 171 170 172 171 168 161 162 177 168 178 185 191 181 184 181 174 159 167 185 182 173 194 175 184 171 175 188 208 200 209 212 211
223 229 224 198 209 206 230 231 161 166 182 180 174 168 163 164 174 169 167 174 170 166 159 173 185 170 172 175 180 172 179 175 174 166 159 175 181 190 204 193 183 184 204 208 204 212 213 207 218
213 225 224 197 198 214 228 236 170 171 191 192 184 177 172 167 167 164 171 172 165 158 160 172 175 172 169 165 171 170 167 171 170 157 152 169 198 201 214 200 171 215 215 218 231 196 228 214 220
213 226 226 222 189 216 227 230 207 194 199 197 190 180 176 173 158 154 163 162 158 155 156 161 164 162 167 166 171 175 172 171 169 163 156 192 208 205 226 199 193 233 225 225 232 223 223 233 229
241 238 235 229 204 224 230 233 223 204 202 198 195 186 181 169 150 143 149 150 149 154 157 158 161 155 170 171 181 180 174 175 169 165 162 193 205 202 225 236 195 232 224 232 233 224 213 221 223
233 235 230 218 196 232 237 243 230 213 206 204 200 193 187 169 153 144 148 151 156 159 159 160 162 159 169 164 176 182 175 180 175 172 167 194 192 203 208 224 230 218 217 217 231 231 242 230 221
229 235 233 229 216 221 235 236 217 203 202 199 202 198 188 179 164 156 158 159 163 164 166 165 167 166 170 166 171 160 166 181 171 179 176 191 194 198 223 212 230 227 228 208 222 228 231 237 225
228 228 237 230 234 229 227 253 209 196 200 199 197 192 185 177 172 164 162 164 165 164 162 160 160 158 163 176 176 176 185 192 184 193 166 185 197 205 211 221 225 237 235 221 226 217 230 233 230
239 230 234 237 243 251 229 255 217 191 205 197 193 192 186 177 173 169 165 163 163 161 157 154 154 157 161 173 174 189 198 202 182 176 170 210 196 206 208 217 228 236 242 239 246 237 235 233 238
223 217 221 233 238 242 234 246 237 197 208 191 185 188 184 177 172 169 162 157 160 158 155 153 153 156 158 171 174 187 187 194 185 200 196 212 197 198 197 210 224 233 244 237 234 236 226 231 234
214 220 220 218 222 232 205 236 238 174 184 187 182 180 178 175 173 168 162 159 160 160 158 155 156 157 158 164 170 175 174 177 190 215 203 227 213 201 186 225 239 246 240 245 239 223 223 224 224
216 229 241 246 240 229 204 228 188 147 159 175 180 177 175 177 177 173 166 161 159 157 156 159 160 160 162 163 162 165 177 196 194 211 231 224 242 226 172 221 242 263 256 251 241 235 220 208 222
219 229 253 266 264 253 219 205 177 167 176 177 176 176 176 178 177 173 166 163 158 155 156 159 158 160 164 162 159 162 175 196 179 197 226 224 229 201 188 216 232 243 242 245 241 235 232 216 216
242 234 232 246 252 251 231 227 212 178 186 180 180 179 173 172 175 171 165 160 155 153 150 152 152 148 152 158 165 158 167 173 163 195 214 231 237 240 213 228 240 237 231 234 241 232 213 215 216
204 216 233 243 252 260 251 226 89 170 183 185 184 178 172 172 172 164 160 154 150 147 148 151 149 147 153 154 153 154 161 162 171 185 208 205 214 216 222 230 238 230 226 218 221 235 227 225 222
230 232 231 239 242 249 265 249 94 157 163 171 173 167 164 164 162 159 154 152 152 152 152 149 150 151 154 149 147 148 151 161 184 181 206 209 211 220 217 224 238 238 231 221 221 231 228 229 234